Powrót do katalogu

STARLINK-6379

AktywnyŁącznośćVLEO
NORAD 57343·PAYLOAD·🇺🇸 United States

Wystrzelony Jul 16, 2023 z Cape Canaveral Space Force Station

Loading…

Następne Przeloty (najbliższe 24 godziny)

TLE

ŚwieżeSource: CelesTrak SupGP

Epoka: Sep 15, 2026, 02:09 UTC

1 57343C 23099R   26258.09006944 -.00011347  00000+0 -41101-3 0  2585
2 57343  43.0001 263.0727 0001117 259.5904 299.3621 15.27583511    14

Śledź STARLINK-6379 w czasie rzeczywistym z AllMySat

Download on the App Store